Wind_Speed
24 17 13 7 2 2 6 3 8 7 8 8 7 6 13 11 6 4 9 7 14 17 13 14 13 11 5 4 7 10 8 8 9 8 5 7 8 9 8 8 8 8 5 7 10 10 9 4 8
25 19 6 4 2 5 4 8 10 9 7 4 6 1 8 10 8 9 11 9 13 14 10 12 12 9 4 3 5 10 9 10 9 4 6 7 6 7 6 6 6 7 8 6 7 8 9 5 5
24 13 2 3 3 6 6 11 8 8 4 4 5 8 6 4 8 6 13 13 14 11 14 11 13 9 5 4 5 8 8 8 6 6 8 6 7 9 6 6 5 4 4 4 4 6 6 6 5
11 3 4 1 10 7 10 9 10 7 6 1 3 9 6 12 5 9 12 13 13 12 11 10 11 7 4 4 5 8 9 7 5 6 5 6 7 8 7 7 5 4 2 1 1 4 2 4 2
12 4 3 5 9 5 8 7 5 7 5 6 4 6 6 7 10 11 12 12 14 12 9 10 9 5 4 4 5 7 8 10 4 6 3 5 5 5 5 6 5 4 3 3 2 2 2 1 2
4 1 3 5 9 5 7 5 1 9 9 3 6 9 4 7 11 10 11 11 11 8 8 7 7 5 4 4 5 7 7 12 8 10 7 7 8 8 5 4 6 6 4 4 3 3 4 3 4
4 4 5 6 10 5 7 2 4 6 7 6 5 6 7 11 9 10 10 11 11 8 6 6 3 5 5 5 6 7 7 13 10 9 8 7 9 9 7 6 7 8 7 7 5 4 5 6 7
3 3 2 4 7 6 4 3 3 7 5 3 5 4 5 10 10 10 10 11 11 9 7 7 6 6 5 5 7 8 8 10 11 13 12 9 8 11 10 10 10 11 8 9 8 6 7 7 9
4 3 3 3 3 8 5 5 2 1 4 5 5 7 10 12 12 11 10 10 9 8 12 8 8 9 8 7 9 8 11 11 10 12 14 13 10 12 13 11 10 11 12 12 12 11 9 9 10
3 2 5 8 9 5 6 4 6 5 6 7 8 10 13 12 12 12 10 11 10 9 11 14 13 11 11 10 11 11 12 14 14 14 13 15 13 12 12 12 12 13 13 14 15 15 13 12 12
3 3 7 8 8 8 5 1 3 4 3 5 10 10 10 13 11 10 12 10 13 13 12 11 14 16 13 14 14 12 11 15 13 14 14 15 13 15 16 15 12 14 17 18 17 17 18 17 11
2 7 2 5 4 1 1 4 3 2 4 5 9 7 8 7 9 11 10 11 12 10 11 13 13 13 19 15 15 17 16 15 16 17 18 18 17 16 16 15 15 16 13 13 15 18 16 17 15
5 9 3 6 3 2 2 4 6 3 2 5 6 5 6 5 5 4 4 4 4 6 8 11 15 16 15 22 21 19 20 20 20 18 19 21 21 19 19 19 16 16 15 15 16 17 18 18 17
3 6 8 5 5 4 2 6 7 6 9 8 7 7 9 6 5 4 4 7 8 9 10 11 14 18 20 22 20 24 20 22 22 22 21 20 22 22 21 20 20 20 19 18 17 18 19 20 20
3 5 7 5 4 6 4 8 10 9 8 7 9 9 9 8 7 9 10 8 7 9 10 11 13 17 20 24 26 22 27 19 23 23 23 23 22 24 23 21 21 20 20 20 20 19 19 20 20
4 6 7 8 10 5 7 8 9 13 14 11 10 8 9 6 11 13 13 14 13 16 17 16 14 13 20 23 24 26 25 26 21 25 21 24 26 23 23 25 23 21 20 20 20 21 22 22 22
7 5 11 8 10 9 9 4 7 10 5 8 8 8 7 6 7 12 14 19 20 4 6 10 12 15 17 21 24 23 25 24 22 28 27 25 23 25 25 23 23 22 21 21 20 21 22 23 24
7 11 11 10 5 3 8 9 9 8 5 6 7 8 8 8 9 11 19 8 5 5 7 11 15 18 18 19 20 23 25 25 23 27 26 26 28 22 25 27 25 23 23 23 23 23 22 24 25
10 9 8 7 8 6 8 9 10 9 9 10 10 9 9 9 11 16 2 12 8 7 10 14 17 18 18 19 20 21 24 25 24 27 24 24 26 24 22 26 26 24 25 27 24 23 25 25 24
12 12 10 7 5 2 5 11 15 14 15 14 10 9 9 8 8 8 15 14 11 10 11 13 13 16 17 17 19 19 22 21 22 24 22 24 23 24 26 20 24 25 23 25 27 26 22 20 18
13 14 8 7 6 5 4 14 19 17 23 16 11 9 7 8 8 5 13 15 12 11 11 12 12 12 11 13 16 17 16 15 12 10 17 18 15 14 18 25 20 19 20 20 20 24 24 18 19
15 9 13 11 6 5 6 6 12 7 3 8 13 13 10 8 6 7 11 13 10 8 8 10 11 11 10 10 7 10 12 11 11 11 3 7 10 10 10 12 16 20 20 20 19 18 19 21 15
6 5 9 8 6 6 12 6 5 11 9 8 8 8 9 8 8 8 10 9 6 6 7 9 10 12 12 11 10 6 8 9 10 10 10 9 8 7 6 5 5 4 9 15 16 17 19 21 22
6 3 3 1 2 8 12 10 7 10 10 8 5 8 9 8 8 9 9 8 8 6 7 9 11 14 14 13 14 13 13 12 13 13 14 12 9 9 9 8 8 7 8 9 10 9 11 14 15
5 8 2 2 2 6 9 12 15 7 4 0 11 9 8 7 7 7 7 8 6 7 8 9 12 15 15 15 18 18 16 14 16 14 11 11 10 12 13 12 12 11 9 8 9 9 9 14 15
13 13 5 7 5 3 13 9 6 6 8 7 8 8 8 8 7 7 8 8 8 7 8 9 10 13 14 15 14 16 15 14 15 15 13 13 14 14 12 13 13 13 13 14 14 15 13 13 15
10 17 13 6 2 2 5 6 8 6 5 6 7 7 8 8 8 7 9 9 9 8 7 8 10 11 12 13 13 15 15 15 14 12 12 13 11 11 13 13 13 13 15 16 14 15 17 17 17
5 6 9 3 4 4 6 8 10 4 7 8 8 9 9 9 9 8 9 10 8 7 7 8 9 10 10 11 12 14 14 13 12 12 13 13 12 12 13 14 14 15 17 16 17 17 19 19 20
10 6 6 5 6 4 4 5 3 6 12 14 11 8 9 9 8 8 11 13 10 8 7 7 8 7 9 8 9 11 11 11 11 12 12 12 12 13 14 14 15 18 16 18 19 18 21 21 21
16 16 15 7 8 5 12 17 5 7 4 6 8 7 8 9 8 8 13 15 13 11 9 8 8 8 8 6 7 9 9 9 10 11 11 11 11 12 14 15 17 16 18 20 22 22 21 19 21
Wind_Direction
337 340 321 283 278 108 80 71 89 62 84 58 45 28 81 52 21 65 113 112 133 131 155 151 149 142 139 143 132 140 129 136 124 108 102 91 98 100 88 73 73 65 76 73 60 50 45 91 95
333 331 297 269 260 101 81 103 75 74 76 139 83 245 85 74 78 121 123 140 140 136 147 162 154 149 154 188 142 153 141 136 131 110 117 94 115 116 105 97 99 97 100 85 60 44 44 121 104
323 292 262 271 49 36 105 91 97 98 54 7 121 50 28 38 42 88 122 142 139 137 155 167 160 164 196 161 148 162 156 152 156 155 153 134 121 135 126 105 89 96 103 91 46 34 44 62 108
309 234 257 275 84 54 86 92 117 125 111 9 311 95 87 31 66 101 132 143 140 141 164 175 172 184 186 162 164 168 173 166 164 160 171 156 142 153 146 143 137 123 122 130 63 3 350 32 80
299 256 265 85 73 73 76 85 108 90 89 64 83 77 90 73 99 119 132 145 141 140 164 183 182 195 181 169 164 162 177 182 184 170 187 185 174 168 169 169 177 175 165 165 196 246 230 242 117
297 218 280 151 114 88 90 91 72 83 107 143 104 103 80 130 116 125 137 143 140 152 162 182 202 199 198 191 180 179 192 185 181 181 188 202 203 197 191 188 196 192 198 226 251 230 227 225 222
330 336 342 71 118 145 105 21 5 96 113 38 329 92 126 108 115 132 142 141 144 157 174 183 239 218 213 213 205 200 198 200 201 199 213 219 212 214 211 205 218 216 223 235 257 250 244 241 247
325 298 328 355 139 109 108 109 357 6 73 139 348 110 117 124 130 136 142 140 145 161 174 199 200 249 268 248 228 219 221 213 219 223 230 229 209 213 215 214 223 233 233 244 257 278 270 256 253
308 286 242 152 25 106 133 157 18 325 127 68 65 70 109 129 138 140 149 152 165 187 184 196 212 215 226 236 258 251 232 226 231 221 221 231 233 226 224 226 228 245 241 248 258 260 271 269 265
290 295 21 12 49 70 83 338 131 206 143 137 110 108 125 144 158 157 172 182 195 214 213 194 201 214 216 225 238 254 254 239 237 233 233 238 233 235 249 248 248 250 241 246 248 260 267 268 271
246 247 38 79 44 11 57 247 22 281 180 107 149 138 156 163 172 180 192 204 198 208 215 227 211 200 219 217 222 243 250 246 244 239 235 238 239 231 239 238 249 251 252 250 252 262 259 260 265
280 263 7 90 69 186 235 17 287 281 103 57 77 98 154 181 185 193 201 197 198 203 211 226 233 225 208 216 227 223 230 229 240 235 234 231 234 236 237 245 248 252 256 254 256 252 263 261 254
202 280 178 84 107 260 27 264 261 297 237 131 124 169 250 200 194 192 213 222 219 219 220 220 230 241 239 219 212 228 224 229 229 235 233 231 232 236 238 237 237 237 244 243 245 245 255 253 254
241 293 260 195 202 201 244 258 248 223 246 245 193 218 231 200 213 245 209 219 210 219 227 232 232 234 239 243 235 221 231 229 232 227 229 234 233 232 235 235 235 235 235 239 242 244 247 253 257
349 281 282 258 205 256 207 259 251 240 223 219 207 220 231 218 209 222 241 233 242 251 255 247 244 238 235 241 247 246 227 231 234 233 227 227 234 236 234 237 237 238 240 238 239 241 244 248 251
209 237 252 208 208 192 144 250 250 228 225 231 242 245 242 187 213 232 239 249 259 266 258 257 261 268 245 235 242 247 248 236 231 233 231 231 230 235 236 238 239 238 238 240 242 245 246 247 248
207 243 221 244 227 196 178 261 272 259 246 223 224 255 258 248 241 243 262 267 265 301 346 310 291 283 271 256 235 240 250 246 242 234 234 228 235 235 234 237 240 241 243 244 244 246 243 246 248
216 217 243 257 212 197 245 238 235 269 249 250 259 271 288 283 269 283 281 281 57 17 319 310 302 288 283 271 254 238 238 242 242 233 242 238 232 235 235 239 242 242 244 245 245 248 248 249 253
268 277 285 245 245 179 227 261 274 278 273 223 223 232 240 252 273 275 9 60 37 358 325 309 301 293 291 282 256 238 234 237 239 241 248 246 245 235 244 242 242 241 243 247 247 251 252 253 256
242 259 265 290 313 98 294 273 274 266 261 254 246 248 251 256 277 287 73 57 33 14 342 329 326 317 296 290 273 250 237 238 241 238 244 254 251 243 240 246 245 245 245 250 251 251 258 262 256
231 240 248 259 292 209 275 271 252 249 241 247 245 237 239 246 264 75 70 59 37 16 356 348 343 333 332 298 284 267 236 239 242 244 248 243 249 253 251 246 246 248 248 254 259 255 254 258 259
232 213 236 248 241 246 198 283 297 277 247 220 220 230 220 226 119 88 70 61 44 12 6 9 3 351 339 342 299 264 231 233 248 260 168 220 232 241 249 256 254 255 258 259 260 265 260 262 252
237 294 254 225 251 272 258 279 264 231 257 243 206 200 203 110 107 97 90 88 70 38 27 30 26 27 28 21 28 46 103 92 93 88 92 90 80 85 59 51 43 3 272 272 278 281 277 273 269
164 87 46 354 258 246 229 230 228 235 212 218 195 129 122 118 106 98 102 99 72 49 45 50 52 43 50 57 55 62 76 72 70 66 70 57 53 39 39 37 38 21 20 14 12 358 327 302 298
222 162 181 222 216 236 203 208 243 302 328 34 186 136 126 124 129 132 122 96 82 61 53 54 59 56 57 69 73 67 68 76 78 66 71 64 48 38 35 41 36 29 22 12 1 16 16 7 15
203 201 177 199 199 231 206 235 242 208 245 170 130 147 138 139 126 123 130 128 106 80 68 68 64 65 66 67 72 76 78 81 82 77 73 73 61 45 46 52 50 45 36 37 41 36 31 23 17
189 215 214 326 149 128 241 261 304 167 170 133 139 139 154 159 141 149 140 127 117 102 87 83 80 71 71 72 78 76 79 76 77 82 81 70 64 52 51 54 49 45 42 46 46 43 29 29 29
187 154 202 208 241 232 240 246 239 203 186 194 193 188 177 151 152 150 146 136 126 124 109 97 88 83 77 78 79 80 80 83 80 76 72 64 61 59 59 56 52 50 49 42 46 39 35 31 30
200 210 215 185 214 213 248 235 196 238 214 191 203 189 170 161 159 155 151 146 145 139 124 116 108 94 86 86 88 87 83 82 81 76 71 69 64 59 60 56 55 57 45 43 43 43 38 36 31
217 214 205 206 220 247 257 261 43 99 93 157 173 174 163 157 160 156 149 154 163 157 150 140 132 128 106 100 95 91 89 89 86 79 74 72 69 71 67 66 63 54 49 47 44 39 41 39 33
Height
778 775 774 773 796 784 805 806 790 798 801 795 794 797 808 807 815 835 819 821 821 823 826 828 830 832 833 833 834 835 836 837 837 838 840 841 843 844 846 847 847 848 849 850 850 850 849 849 850
777 775 773 772 798 807 814 793 805 803 798 793 794 794 801 817 808 816 819 821 823 824 827 829 831 833 835 835 835 836 837 838 839 840 841 842 843 845 847 848 848 849 850 850 851 851 850 850 850
778 776 781 784 795 811 814 798 802 800 795 794 798 796 801 814 810 814 818 821 823 825 828 829 831 833 834 835 836 837 838 839 840 841 841 842 843 845 847 848 850 851 851 852 852 851 851 851 850
779 774 773 797 808 798 798 797 797 800 796 793 794 810 809 813 812 815 820 822 824 826 829 831 832 834 834 835 835 836 839 840 841 842 843 843 844 845 846 847 848 850 851 852 853 852 852 853 852
775 775 792 797 806 796 793 790 789 798 796 797 793 813 815 816 816 818 820 822 824 827 830 831 833 834 834 835 836 837 838 839 841 843 844 846 847 847 847 848 849 850 850 851 851 851 851 852 853
786 777 800 809 807 797 795 790 790 797 797 798 799 808 818 816 817 819 821 823 825 827 831 832 833 834 835 836 837 837 838 839 840 842 843 844 845 847 847 847 848 849 850 850 850 850 851 851 851
793 796 803 796 806 804 801 790 796 797 799 805 796 813 815 816 819 820 822 824 826 827 830 832 834 835 835 836 837 838 839 839 840 841 842 843 844 846 847 847 847 848 849 849 848 849 849 850 850
792 795 798 794 805 812 798 796 796 799 806 798 798 811 820 817 819 820 822 824 826 827 830 832 833 834 835 836 837 838 839 840 840 841 841 842 842 843 844 845 846 846 848 848 848 848 848 848 848
789 809 810 799 799 806 797 802 798 797 801 800 802 807 813 816 818 820 822 824 824 826 828 831 832 833 834 836 836 837 838 838 839 839 840 840 841 842 843 844 844 845 846 847 847 847 847 847 847
800 809 806 795 796 801 800 800 801 804 804 806 809 810 813 815 816 818 820 821 823 824 825 826 829 830 833 834 834 835 835 836 837 838 839 839 841 841 841 842 843 844 845 845 845 846 847 847 846
798 812 799 799 801 800 802 803 799 802 806 802 808 810 811 812 814 815 816 817 818 820 821 823 824 826 829 830 831 832 833 834 834 836 837 838 839 840 841 841 842 842 843 844 844 845 844 844 844
811 799 797 801 803 803 806 802 805 802 808 800 802 805 808 810 810 811 813 814 816 818 820 821 821 823 824 826 826 827 828 831 832 833 835 836 837 838 838 838 839 839 840 840 841 841 841 841 842
808 804 797 802 805 805 804 808 808 804 800 801 803 807 807 807 808 810 811 812 814 816 817 819 819 818 819 821 821 822 823 824 826 829 830 832 833 833 834 835 835 836 836 837 837 838 838 838 838
799 803 801 801 806 805 811 810 807 804 800 801 802 804 805 804 807 809 810 811 811 813 814 815 815 815 815 815 818 818 820 819 820 822 825 827 828 830 830 830 831 831 832 832 833 834 835 836 837
802 814 806 804 805 808 804 817 813 800 798 802 802 802 801 801 804 806 807 807 808 809 809 810 810 811 812 811 810 813 815 817 818 818 820 821 823 825 826 827 827 828 828 829 829 830 830 831 832
812 815 827 806 806 805 811 823 803 795 797 800 799 798 799 798 801 803 804 804 804 804 803 805 806 807 807 807 806 806 809 812 813 814 815 816 818 820 822 824 824 824 824 825 826 827 827 826 826
816 826 823 815 798 803 811 815 800 791 792 797 797 796 795 796 797 799 800 801 800 799 800 801 802 802 803 802 803 803 803 804 806 808 810 811 813 815 817 818 819 821 821 822 822 823 823 822 821
822 823 816 814 801 801 808 810 804 797 795 797 796 796 796 795 795 797 797 796 794 796 798 799 800 800 800 799 798 798 800 799 800 801 804 806 808 810 812 813 815 817 817 817 817 818 819 818 817
812 815 815 804 797 806 812 810 804 798 795 797 795 795 793 793 791 793 794 792 793 795 796 798 797 797 797 796 794 793 793 796 797 797 799 801 803 806 807 807 810 811 812 812 814 814 814 814 815
813 817 818 806 801 809 813 814 804 799 793 789 790 790 789 789 789 790 790 791 794 796 797 797 796 794 793 792 791 790 790 792 794 795 796 797 798 800 802 803 804 806 808 808 809 810 811 810 811
811 817 819 818 807 807 815 811 800 784 780 782 781 782 783 785 788 789 789 791 795 798 798 798 795 792 789 787 786 787 788 790 791 791 792 793 794 796 797 798 800 802 803 804 805 805 806 806 806
814 808 812 815 821 832 810 826 791 781 775 775 776 778 780 782 786 788 790 795 798 800 799 798 795 791 787 784 783 784 786 788 790 790 790 791 793 794 795 795 797 798 800 800 800 801 801 802 801
808 804 806 813 821 827 823 831 793 777 782 777 774 773 775 782 784 790 793 797 800 800 800 798 795 791 788 785 784 783 785 788 789 789 789 790 791 792 792 792 793 794 795 797 797 797 797 797 796
801 810 813 814 823 831 819 823 794 784 776 770 767 773 777 782 786 791 796 799 801 802 801 799 796 794 791 788 787 787 788 789 789 790 790 792 793 793 793 793 793 794 794 794 794 795 795 795 795
804 814 833 843 845 831 801 814 783 770 763 760 763 774 778 782 786 791 796 799 802 803 803 802 799 796 794 791 790 790 790 790 791 793 795 795 796 796 796 795 795 795 795 794 795 794 794 794 795
803 808 822 830 828 817 802 806 784 760 756 757 762 769 776 781 786 791 796 799 800 802 802 802 801 798 796 794 793 793 792 793 795 796 797 798 799 799 799 798 796 795 796 795 795 795 795 794 793
801 806 798 813 821 824 802 779 768 761 760 765 768 772 777 782 787 793 795 797 799 801 802 802 803 802 799 797 795 795 796 796 798 798 798 798 799 799 798 797 798 797 796 795 796 795 796 795 795
789 791 809 816 818 829 799 789 774 764 765 765 768 770 773 779 785 789 792 796 799 801 802 802 803 803 802 800 798 797 796 797 798 799 799 799 799 799 798 799 799 798 797 797 795 797 797 797 797
791 796 794 794 805 798 790 780 745 748 748 756 761 763 768 775 780 784 789 794 798 800 802 802 802 802 802 801 799 797 797 798 798 798 799 799 800 799 799 799 799 798 796 797 798 797 795 798 798
775 779 783 788 797 796 789 769 746 747 746 748 755 759 764 770 776 783 789 793 796 798 799 800 800 799 800 801 800 799 799 799 799 799 799 799 800 799 798 797 797 798 798 796 796 798 798 799 798